Voltar ao catálogo

STARLINK-30070

AtivoComunicaçõesVLEO
NORAD 56707·PAYLOAD·🇺🇸 United States

Lançado May 19, 2023 de Cape Canaveral Space Force Station

Loading…

Próximas Passagens (próximas 24 horas)

TLE

AtualizadoSource: CelesTrak SupGP

Época: Sep 15, 2026, 02:34 UTC

1 56707C 23067V   26258.10743056  .00004588  00000+0  16621-3 0  2583
2 56707  43.0002 281.3986 0001505 263.8520 261.7761 15.27571817    15

Acompanhe STARLINK-30070 em tempo real com AllMySat

Download on the App Store